Regional Weather Roundup
Issued by NWS

Home | Current Version | Previous Version | Graphics & Text | Print | Product List | Glossary On
Versions: 1 2 3 4 5 6 7 8 9 10 11 12 13 14 15 16 17 18 19 20 21 22 23 24 25 26 27 28 29 30 31 32 33 34 35 36 37 38 39 40 41 42 43 44 45 46 47 48 49 50
000
ASUS43 KBIS 170110
RWRND

NORTH DAKOTA REGIONAL WEATHER ROUNDUP
NATIONAL WEATHER SERVICE BISMARCK ND
700 PM CST THU NOV 16 2017

NOTE: "FAIR" INDICATES FEW OR NO CLOUDS BELOW 12,000 FEET WITH NO
SIGNIFICANT WEATHER AND/OR OBSTRUCTIONS TO VISIBILITY.


NDZ001>003-009>011-017-170200-
NORTHWEST NORTH DAKOTA

CITY           SKY/WX    TMP DP  RH WIND       PRES   REMARKS
WILLISTON      CLOUDY    32  23  69 CALM      29.49R
MINOT          CLOUDY    29  23  78 S5        29.50R
MINOT AFB      PTCLDY    28  23  82 S9        29.48S WCI  19
$$

NDZ018>021-031>035-040>046-170200-
SOUTHWEST NORTH DAKOTA

CITY           SKY/WX    TMP DP  RH WIND       PRES   REMARKS
BISMARCK       CLOUDY    41  29  62 SE9       29.56S
DICKINSON      CLOUDY    36  25  64 W12       29.50R
GARRISON         N/A     33  27  78 S8        29.49F
HETTINGER ARPT CLOUDY    35  25  66 S5        29.51R
$$

NDZ004>008-012>016-024-026-027-054-170200-
NORTHEAST NORTH DAKOTA

CITY           SKY/WX    TMP DP  RH WIND       PRES   REMARKS
GRAND FORKS    CLOUDY    31  27  85 SE21      29.71F WCI  18
GRND FRKS AFB  MOCLDY    34  27  75 S28G35    29.69F
DEVILS LAKE    CLOUDY    28  24  85 SE21G30   29.60F WCI  15
$$

NDZ022-023-025-028>030-036>039-047>053-170200-
SOUTHEAST NORTH DAKOTA

CITY           SKY/WX    TMP DP  RH WIND       PRES   REMARKS
FARGO          CLOUDY    33  25  72 SE28G41   29.76F WCI  20
JAMESTOWN      CLOUDY    29  24  82 SE20      29.61F WCI  16
$$





USA.gov is the U.S. government's official web portal to all federal, state and local government web resources and services.